Torna al catalogo

STARLINK-35250

AttivoComunicazioniSSO
NORAD 65603·PAYLOAD·🇺🇸 United States

Lanciato Sep 13, 2025 da Cape Canaveral Space Force Station

Loading…

Prossimi Passaggi (prossime 24 ore)

TLE

AggiornatoSource: CelesTrak SupGP

Epoca: Sep 14, 2026, 21:32 UTC

1 65603C 25207M   26257.89770833  .02255600  00000+0  11425+0 0  2571
2 65603  97.2841 320.6110 0001670  94.7799 354.6574 15.15935210    12

Traccia STARLINK-35250 in tempo reale con AllMySat

Download on the App Store